Regional Weather Roundup
Issued by NWS

Home | Current Version | Previous Version | Graphics & Text | Print | Product List | Glossary On
Versions: 1 2 3 4 5 6 7 8 9 10 11 12 13 14 15 16 17 18 19 20 21 22 23 24 25 26 27 28 29 30 31 32 33 34 35 36 37 38 39 40 41 42 43 44 45 46 47 48 49 50
000
ASUS43 KMKX 031300
RWRWI

WISCONSIN REGIONAL WEATHER ROUNDUP
NATIONAL WEATHER SERVICE MILWAUKEE/SULLIVAN WI
800 AM CDT FRI JUL 03 2015

NOTE: "FAIR" INDICATES FEW OR NO CLOUDS BELOW 12,000 FEET WITH NO
SIGNIFICANT WEATHER AND/OR OBSTRUCTIONS TO VISIBILITY.

WIZ001-002-006>008-014>016-023>028-031400-
NORTHWEST WISCONSIN

CITY           SKY/WX    TMP DP  RH WIND       PRES   REMARKS
SUPERIOR ARPT  CLOUDY    61  56  84 SW6       29.92S
ASHLAND        PTSUNNY   63  57  81 SW9       29.92F
HAYWARD        MOSUNNY   60  55  83 S3        29.96F
SIREN          SUNNY     62  55  76 SW7       29.97S
CUMBERLAND     SUNNY     57  54  88 SW3       29.98S
RICE LAKE      SUNNY     58  55  90 CALM      29.99F
CHETEK         SUNNY     58  56  96 CALM      29.99S
LADYSMITH      SUNNY     57  55  91 CALM      30.00S
EAU CLAIRE     NOT AVBL
MENOMONIE      SUNNY     59  58  97 CALM      29.99S
NEW RICHMOND   SUNNY     59  58  96 CALM      29.99S
OSCEOLA        SUNNY     59  59 100 CALM      30.01S
$$

WIZ003>005-009-010-017-018-031400-
NORTH CENTRAL WISCONSIN

CITY           SKY/WX    TMP DP  RH WIND       PRES   REMARKS
MANITOWISH WTR MOSUNNY   56  54  91 SW5       29.97F
ARBOR VITAE    MOSUNNY   57  52  83 SW6       29.98S
WOODRUFF       MOSUNNY   57  52  83 SW6       29.98S
RHINELANDER    SUNNY     59  50  72 SW7       29.99F
EAGLE RIVER    MOSUNNY   57  50  77 SW8       29.97S
LAND O LAKES   MOSUNNY   58  53  83 SW3       29.97F
PHILLIPS       SUNNY     56  52  86 S3        29.98S
TOMAHAWK       SUNNY     55  51  89 CALM      30.00S
MEDFORD        SUNNY     57  51  81 SW3       30.00S
MERRILL        SUNNY     51  51  99 CALM      30.00S
$$

WIZ029-030-035-036-043>047-031400-
CENTRAL WISCONSIN

CITY           SKY/WX    TMP DP  RH WIND       PRES   REMARKS
WAUSAU         SUNNY     59  53  80 CALM      29.98S
MOSINEE        SUNNY     55  54  94 CALM      30.01S
MARSHFIELD     SUNNY     58  52  80 SW3       30.00S
STEVENS POINT  SUNNY     53  49  87 CALM      30.01S
WAUPACA        SUNNY     56  55  98 SW3       30.01S
WAUTOMA        NOT AVBL
WISC RAPIDS    SUNNY     58  52  80 CALM      30.01S
CAMP DOUGLAS   NOT AVBL
$$

WIZ011>013-019>022-031-037>040-048>050-031400-
NORTHEAST WISCONSIN

CITY           SKY/WX    TMP DP  RH WIND       PRES   REMARKS
ANTIGO         SUNNY     54  51  89 CALM      30.00F
SHAWANO        SUNNY     59  52  78 SW3       29.99S
OCONTO         SUNNY     55  55  98 W3        29.98F
STURGEON BAY   SUNNY     61  52  72 W7        30.01S
GREEN BAY      SUNNY     60  54  80 SW3       30.00S
MANITOWOC      NOT AVBL
APPLETON       NOT AVBL
CLINTONVILLE   SUNNY     55  52  88 CALM      30.00S
OSHKOSH        SUNNY     60  51  72 W5        30.00F
$$

WIZ032>034-041-042-053>061-031400-
SOUTHWEST WISCONSIN

CITY           SKY/WX    TMP DP  RH WIND       PRES   REMARKS
LA CROSSE      CLOUDY    58  56  93 SE6       29.99S FOG
SPARTA         SUNNY     52  49  90 CALM      30.01S
VIROQUA        SUNNY     59  55  86 CALM      30.01S
BOSCOBEL       FOG       56  55  97 CALM      30.01F VSB 1/4
PRAIRIE DU CHI FOG       54  53  96 CALM      30.01S VSB 1/4
PLATTEVILLE    MOSUNNY   56  54  93 CALM      30.01S
$$

WIZ056-057-062-063-064-067-068-031400-
SOUTH CENTRAL WISCONSIN

CITY           SKY/WX    TMP DP  RH WIND       PRES   REMARKS
REEDSBURG      SUNNY     53  52  97 CALM      30.00F
BARABOO/DELLS  SUNNY     55  53  91 CALM      30.00F
LONE ROCK      NOT AVBL
MINERAL POINT  SUNNY     55  52  88 CALM      30.01S
MADISON        PTSUNNY   58  52  80 N3        30.01R
MIDDLETON      PTSUNNY   57  56  95 CALM      30.01F
WATERTOWN      MOSUNNY   57  51  79 CALM      30.01S
MONROE         PTSUNNY   55  52  88 N3        30.00S
JANESVILLE     SUNNY     61  52  72 N5        29.99S
$$

WIZ051-052-058>065-066-070>072-031400-
SOUTHEAST WISCONSIN

CITY           SKY/WX    TMP DP  RH WIND       PRES   REMARKS
MILWAUKEE      PTSUNNY   60  52  74 CALM      30.00S
WAUKESHA       SUNNY     57  48  72 CALM      30.01S
MILWAUKEE/TIMM SUNNY     57  46  67 CALM      30.01S
RACINE         CLOUDY    61  54  77 N3        30.01S
BURLINGTON     PTSUNNY   53  51  91 CALM      30.00R
KENOSHA        CLOUDY    60  54  80 CALM      30.00R
FOND DU LAC    SUNNY     59  50  72 CALM      30.00F
SHEBOYGAN      SUNNY     59  51  75 SW3       30.00F
WEST BEND      MOSUNNY   55  50  82 CALM      30.00F
JUNEAU         SUNNY     56  51  82 CALM      30.02S
$$

LSZ147-162-031400-
LAKE SUPERIOR

STATION/POSITION TIME  TEMP    WIND        PRES    WAVE
                       AIR SEA DIR/SP/G            HT/PER
                 (UTC) (F)     (DEG/KT/KT) (MB)    (FT/S)
W MID LAKE BUOY  1150   49 38  210/ 14/ 16 1011.4F   2/ 4
DEVILS ISLAND    1200   63     210/  9/ 12 1012.1F
SAXON HARBOR     1200   64     180/  2/  7 1012.9S
$$

LMZ867-665-643>646-031400-
LAKE MICHIGAN

STATION/POSITION TIME  TEMP    WIND        PRES    WAVE
                       AIR SEA DIR/SP/G            HT/PER
                 (UTC) (F)     (DEG/KT/KT) (MB)    (FT/S)
CHAMBERS ISLAND  1200   62     210/  6/ 10 1015.2S
S GREEN BAY BUOY 1200   62 68  240/ 12/ 14 1016.7
N MID LAKE BUOY  1150   49 45  190/  8/  8 1015.2R   0
NORTHPORT PIER   1200   59     180/  1/  3 1015.2R
SISTER BAY       1114   62     300/  8/  9   N/A
ALGOMA LAKESHORE 1110             CALM       N/A
KEWAUNEE LAKESHO 1200   56     300/  2/  5 1014.8F
SHEBOYGAN LAKESH 1200   58     250/  2/  2 1016.4R
PORT WASHINGTON  1240   64      CALM  /  2 1016.6S
ATWATER BUOY     1200   59      10/  6/  8 1017.3R
MILWAUKEE LAKESH 1200   58     330/  2/  3   N/A
KENOSHA   LAKESH 1200   59      20/  6/  7 1015.6S
$$

TC  - TEMPERATURE IN CELSIUS
VSB - VISIBILITY IN STATUTE MILES
WCI - WIND CHILL INDEX
HX  - HEAT INDEX




USA.gov is the U.S. government's official web portal to all federal, state and local government web resources and services.